Weather History for Wisconsin Rapids, WI

Change the Weather History Date:

Monday, April 8, 2013

  Actual Average Record
Temperature  
Mean Temperature 37 °F -  
Max Temperature 39 °F 50 °F 73 °F (1971)
Min Temperature 35 °F 27 °F 10 °F (1972)
Degree Days  
Heating Degree Days 28    
Moisture  
Dew Point 33 °F    
Average Humidity 86    
Maximum Humidity 93    
Minimum Humidity 75    
Precipitation  
Precipitation 0.04 in - - ()
Sea Level Pressure  
Sea Level Pressure 29.86 in    
Wind  
Wind Speed 7 mph (ENE)    
Max Wind Speed 10 mph    
Max Gust Speed -    
Visibility 7 miles    
Events Rain    
Averages and records for this station are not official NWS values.
T = Trace of Precipitation, MM = Missing Value Source: NWS Daily Summary

Daily Weather History Graph

Daily Weather History Graph

Search for Another Location

Airport:

Trip Planner

Search our weather history database for the weather conditions in past years. The results will help you decide how hot, cold, wet, or windy it might be!

Date:

Astronomy

Apr. 08, 2013 Rise Set
Actual Time 6:27 AM CDT 7:35 PM CDT
Civil Twilight 5:57 AM CDT 8:05 PM CDT
Nautical Twilight 5:22 AM CDT 8:41 PM CDT
Astronomical Twilight 4:44 AM CDT 9:18 PM CDT
Moon 5:20 AM CDT (4/8) 6:07 PM CDT (4/8)
Length of Visible Light 14h 07m
Length of Day
13h 08m
Waning Crescent, 3% of the Moon is Illuminated
Apr 8
Waning Crescent
Apr 10
New
Apr 18
First Quarter
Apr 25
Full
May 2
Last Quarter

Hourly Weather History & Observations

Time (CDT) Temp. Windchill Dew Point Humidity Pressure Visibility Wind Dir Wind Speed Gust Speed Precip Events Conditions
12:54 AM 37.0 °F 29.8 °F 30.9 °F 79% 29.89 in 10.0 mi ESE 10.4 mph - N/A   Overcast
1:54 AM 36.0 °F 29.0 °F 30.0 °F 79% 29.87 in 10.0 mi ESE 9.2 mph - N/A   Overcast
2:54 AM 36.0 °F 29.0 °F 30.0 °F 79% 29.86 in 10.0 mi ESE 9.2 mph - 0.00 in Rain Light Rain
3:54 AM 35.1 °F 28.6 °F 30.0 °F 82% 29.82 in 10.0 mi ESE 8.1 mph - 0.00 in   Overcast
4:54 AM 36.0 °F 29.6 °F 28.9 °F 76% 29.80 in 10.0 mi ESE 8.1 mph - N/A   Mostly Cloudy
5:54 AM 36.0 °F 31.1 °F 28.9 °F 76% 29.79 in 10.0 mi East 5.8 mph - N/A   Mostly Cloudy
6:54 AM 36.0 °F 31.1 °F 30.0 °F 79% 29.81 in 10.0 mi ENE 5.8 mph - N/A   Overcast
7:28 AM 37.4 °F 33.8 °F 30.2 °F 75% 29.78 in 10.0 mi NNE 4.6 mph - N/A   Overcast
7:54 AM 36.0 °F 29.6 °F 30.0 °F 79% 29.80 in 10.0 mi NE 8.1 mph - 0.00 in   Overcast
8:54 AM 37.0 °F 29.8 °F 30.0 °F 76% 29.79 in 10.0 mi East 10.4 mph - N/A   Overcast
9:54 AM 37.0 °F 30.4 °F 32.0 °F 82% 29.78 in 8.0 mi ENE 9.2 mph - 0.01 in   Overcast
10:40 AM 35.6 °F 28.6 °F 33.8 °F 93% 29.75 in 5.0 mi ENE 9.2 mph - 0.00 in Rain Light Rain
10:54 AM 36.0 °F 29.6 °F 33.1 °F 89% 29.79 in 5.0 mi NE 8.1 mph - 0.00 in Rain Light Rain
11:29 AM 35.6 °F 31.7 °F 33.8 °F 93% 29.77 in 4.0 mi ENE 4.6 mph - 0.00 in Rain Light Rain
11:36 AM 35.6 °F 30.7 °F 33.8 °F 93% 29.77 in 3.0 mi ENE 5.8 mph - 0.00 in Rain Light Rain
11:54 AM 36.0 °F 31.1 °F 33.1 °F 89% 29.81 in 2.5 mi ENE 5.8 mph - 0.01 in Rain Light Rain
12:13 PM 37.4 °F 33.8 °F 33.8 °F 87% 29.78 in 3.0 mi NE 4.6 mph - 0.01 in Rain Light Rain
12:25 PM 37.4 °F 34.9 °F 33.8 °F 87% 29.78 in 2.0 mi NE 3.5 mph - 0.01 in Rain Light Rain
12:43 PM 37.4 °F 32.8 °F 33.8 °F 87% 29.78 in 1.8 mi NE 5.8 mph - 0.01 in Rain Light Rain
12:54 PM 37.0 °F 34.5 °F 34.0 °F 89% 29.81 in 2.0 mi NE 3.5 mph - 0.02 in Rain Light Rain
1:14 PM 37.4 °F - 35.6 °F 93% 29.80 in 4.0 mi Calm Calm - 0.00 in   Overcast
1:22 PM 37.4 °F 34.9 °F 35.6 °F 93% 29.80 in 4.0 mi North 3.5 mph - 0.00 in   Overcast
1:50 PM 37.4 °F 34.9 °F 35.6 °F 93% 29.81 in 5.0 mi North 3.5 mph - 0.00 in   Overcast
1:54 PM 37.9 °F 34.4 °F 35.1 °F 89% 29.83 in 5.0 mi North 4.6 mph - 0.00 in   Overcast
2:54 PM 39.0 °F 33.4 °F 35.1 °F 86% 29.83 in 4.0 mi NNE 8.1 mph - N/A   Overcast
3:54 PM 39.0 °F 35.7 °F 36.0 °F 89% 29.86 in 7.0 mi ENE 4.6 mph - N/A   Overcast
4:54 PM 39.9 °F 36.7 °F 35.1 °F 83% 29.88 in 8.0 mi ENE 4.6 mph - N/A   Overcast
5:54 PM 39.9 °F 37.8 °F 35.1 °F 83% 29.91 in 10.0 mi ENE 3.5 mph - N/A   Overcast
6:32 PM 39.2 °F 37.0 °F 35.6 °F 87% 29.91 in 10.0 mi NNE 3.5 mph - N/A   Overcast
6:54 PM 39.0 °F 34.8 °F 35.1 °F 86% 29.94 in 10.0 mi ENE 5.8 mph - N/A   Overcast
7:01 PM 39.2 °F 37.0 °F 35.6 °F 87% 29.92 in 10.0 mi NE 3.5 mph - N/A   Overcast
7:09 PM 39.2 °F 35.9 °F 35.6 °F 87% 29.91 in 10.0 mi NE 4.6 mph - N/A   Overcast
7:54 PM 37.9 °F 35.5 °F 35.1 °F 89% 29.98 in 10.0 mi ENE 3.5 mph - N/A   Overcast
8:45 PM 37.4 °F 33.8 °F 33.8 °F 87% 29.97 in 10.0 mi NNE 4.6 mph - N/A   Overcast
8:54 PM 37.9 °F 35.5 °F 35.1 °F 89% 30.01 in 10.0 mi NE 3.5 mph - N/A   Overcast
9:54 PM 37.9 °F 33.5 °F 34.0 °F 86% 30.03 in 10.0 mi NE 5.8 mph - N/A   Overcast
10:54 PM 37.0 °F - 34.0 °F 89% 30.05 in 10.0 mi Calm Calm - N/A   Overcast
11:54 PM 37.0 °F - 34.0 °F 89% 30.06 in 8.0 mi Calm Calm - N/A   Overcast